• In Netherlands
  • List of Countries
  • For 7 days
  • Water Temperature
  • Satellite Maps
  • Weather Map
  • Weather Widgets
  • user-avatar
    Login

    Hourly Weather Asadabad

    Today, 22 September, Friday

    Time Temperature Precipitation Wind Pressure Humidity
    00:00 +22°C° 0 mm 1 mps 656 mmHg 34%
    01:00 +20°C° 0 mm 2 mps 655 mmHg 34%
    02:00 +20°C° 0 mm 2 mps 655 mmHg 34%
    03:00 +20°C° 0 mm 2 mps 655 mmHg 35%
    04:00 +19°C° 0 mm 2 mps 655 mmHg 35%
    05:00 +19°C° 0 mm 2 mps 655 mmHg 35%
    06:00 +21°C° 0 mm 2 mps 656 mmHg 32%
    07:00 +23°C° 0 mm 2 mps 657 mmHg 29%
    08:00 +25°C° 0 mm 1 mps 657 mmHg 26%
    09:00 +26°C° 0 mm 2 mps 658 mmHg 24%
    10:00 +27°C° 0 mm 2 mps 658 mmHg 22%
    11:00 +29°C° 0 mm 2 mps 658 mmHg 20%
    12:00 +29°C° 0 mm 2 mps 658 mmHg 19%
    13:00 +30°C° 0 mm 3 mps 658 mmHg 19%
    14:00 +30°C° 0 mm 3 mps 657 mmHg 18%
    15:00 +30°C° 0 mm 3 mps 657 mmHg 19%
    16:00 +30°C° 0 mm 2 mps 657 mmHg 20%
    17:00 +29°C° 0 mm 2 mps 657 mmHg 21%
    18:00 +27°C° 0 mm 2 mps 657 mmHg 25%
    19:00 +25°C° 0 mm 1 mps 656 mmHg 29%
    20:00 +23°C° 0 mm 1 mps 656 mmHg 33%
    21:00 +23°C° 0 mm 1 mps 656 mmHg 32%
    22:00 +22°C° 0 mm 1 mps 656 mmHg 32%
    23:00 +21°C° 0 mm 2 mps 656 mmHg 32%

    Tomorrow, 23 September, Saturday

    Time Temperature Precipitation Wind Pressure Humidity
    00:00 +21°C° 0 mm 2 mps 656 mmHg 32%
    01:00 +20°C° 0 mm 2 mps 656 mmHg 33%
    02:00 +20°C° 0 mm 2 mps 656 mmHg 34%
    03:00 +19°C° 0 mm 2 mps 656 mmHg 35%
    04:00 +19°C° 0 mm 2 mps 656 mmHg 36%
    05:00 +19°C° 0 mm 2 mps 656 mmHg 36%
    06:00 +21°C° 0 mm 2 mps 656 mmHg 34%
    07:00 +23°C° 0 mm 1 mps 657 mmHg 31%
    08:00 +25°C° 0 mm 1 mps 658 mmHg 28%
    09:00 +26°C° 0 mm 1 mps 658 mmHg 25%
    10:00 +27°C° 0 mm 2 mps 659 mmHg 23%
    11:00 +29°C° 0 mm 2 mps 659 mmHg 20%
    12:00 +29°C° 0 mm 2 mps 659 mmHg 20%
    13:00 +30°C° 0 mm 2 mps 658 mmHg 19%
    14:00 +30°C° 0 mm 3 mps 658 mmHg 19%
    15:00 +30°C° 0 mm 2 mps 658 mmHg 20%
    16:00 +30°C° 0 mm 2 mps 658 mmHg 20%
    17:00 +29°C° 0 mm 2 mps 658 mmHg 21%
    18:00 +27°C° 0 mm 2 mps 658 mmHg 25%
    19:00 +25°C° 0 mm 1 mps 658 mmHg 29%
    20:00 +21°C° 0 mm 0 mps 657 mmHg 34%
    21:00 +20°C° 0 mm 0 mps 657 mmHg 34%
    22:00 +22°C° 0 mm 1 mps 657 mmHg 34%
    23:00 +21°C° 0 mm 1 mps 657 mmHg 34%

    Day after tomorrow, 24 September, Sunday

    Time Temperature Precipitation Wind Pressure Humidity
    00:00 +21°C° 0 mm 1 mps 657 mmHg 35%
    01:00 +21°C° 0 mm 1 mps 657 mmHg 35%
    02:00 +20°C° 0 mm 1 mps 657 mmHg 36%
    03:00 +20°C° 0 mm 1 mps 656 mmHg 36%
    04:00 +20°C° 0 mm 1 mps 656 mmHg 36%
    05:00 +19°C° 0 mm 1 mps 656 mmHg 37%
    06:00 +21°C° 0 mm 1 mps 657 mmHg 33%
    07:00 +23°C° 0 mm 1 mps 658 mmHg 29%
    08:00 +25°C° 0 mm 1 mps 659 mmHg 25%
    09:00 +26°C° 0 mm 1 mps 659 mmHg 24%
    10:00 +27°C° 0 mm 2 mps 659 mmHg 22%
    11:00 +28°C° 0 mm 2 mps 659 mmHg 21%
    12:00 +29°C° 0 mm 2 mps 659 mmHg 20%
    13:00 +29°C° 0 mm 2 mps 659 mmHg 20%
    14:00 +30°C° 0 mm 3 mps 658 mmHg 19%
    15:00 +30°C° 0 mm 3 mps 658 mmHg 20%
    16:00 +29°C° 0 mm 2 mps 658 mmHg 21%
    17:00 +29°C° 0 mm 2 mps 658 mmHg 22%
    18:00 +27°C° 0 mm 2 mps 658 mmHg 26%
    19:00 +25°C° 0 mm 1 mps 658 mmHg 31%
    20:00 +20°C° 0 mm 0 mps 657 mmHg 36%
    21:00 +22°C° 0 mm 1 mps 657 mmHg 35%
    22:00 +22°C° 0 mm 1 mps 657 mmHg 35%
    23:00 +21°C° 0 mm 1 mps 657 mmHg 35%

    25 September, Monday

    Time Temperature Precipitation Wind Pressure Humidity
    00:00 +21°C° 0 mm 1 mps 657 mmHg 35%
    01:00 +21°C° 0 mm 1 mps 657 mmHg 35%
    02:00 +20°C° 0 mm 1 mps 656 mmHg 34%
    03:00 +19°C° 0 mm 2 mps 656 mmHg 34%
    04:00 +19°C° 0 mm 2 mps 656 mmHg 33%
    05:00 +18°C° 0 mm 2 mps 656 mmHg 32%
    06:00 +20°C° 0 mm 2 mps 657 mmHg 29%
    07:00 +23°C° 0 mm 2 mps 657 mmHg 25%
    08:00 +25°C° 0 mm 1 mps 658 mmHg 22%
    09:00 +26°C° 0 mm 2 mps 658 mmHg 21%
    10:00 +27°C° 0 mm 2 mps 659 mmHg 19%
    11:00 +28°C° 0 mm 2 mps 659 mmHg 17%
    12:00 +29°C° 0 mm 2 mps 658 mmHg 17%
    13:00 +30°C° 0 mm 3 mps 658 mmHg 17%
    14:00 +30°C° 0 mm 3 mps 658 mmHg 17%
    15:00 +30°C° 0 mm 3 mps 658 mmHg 17%
    16:00 +29°C° 0 mm 2 mps 658 mmHg 18%
    17:00 +29°C° 0 mm 2 mps 657 mmHg 18%
    18:00 +27°C° 0 mm 1 mps 657 mmHg 22%
    19:00 +24°C° 0 mm 1 mps 657 mmHg 26%
    20:00 +20°C° 0 mm 0 mps 657 mmHg 30%
    21:00 +22°C° 0 mm 1 mps 657 mmHg 29%
    22:00 +22°C° 0 mm 1 mps 657 mmHg 29%
    23:00 +21°C° 0 mm 1 mps 657 mmHg 28%

    26 September, Tuesday

    Time Temperature Precipitation Wind Pressure Humidity
    00:00 +20°C° 0 mm 2 mps 657 mmHg 28%
    01:00 +19°C° 0 mm 2 mps 656 mmHg 28%
    02:00 +19°C° 0 mm 2 mps 656 mmHg 27%
    03:00 +19°C° 0 mm 2 mps 656 mmHg 27%
    04:00 +19°C° 0 mm 2 mps 656 mmHg 27%
    05:00 +18°C° 0 mm 2 mps 656 mmHg 26%
    06:00 +20°C° 0 mm 2 mps 657 mmHg 24%
    07:00 +23°C° 0 mm 2 mps 657 mmHg 22%
    08:00 +25°C° 0 mm 1 mps 658 mmHg 20%
    09:00 +26°C° 0 mm 2 mps 659 mmHg 19%
    10:00 +27°C° 0 mm 2 mps 659 mmHg 17%
    11:00 +29°C° 0 mm 2 mps 659 mmHg 16%
    12:00 +29°C° 0 mm 2 mps 659 mmHg 15%
    13:00 +30°C° 0 mm 2 mps 659 mmHg 15%
    14:00 +30°C° 0 mm 2 mps 658 mmHg 15%
    15:00 +30°C° 0 mm 2 mps 658 mmHg 15%
    16:00 +30°C° 0 mm 2 mps 658 mmHg 16%
    17:00 +29°C° 0 mm 2 mps 658 mmHg 17%
    18:00 +27°C° 0 mm 1 mps 658 mmHg 21%
    19:00 +25°C° 0 mm 1 mps 658 mmHg 24%
    20:00 +22°C° 0 mm 1 mps 658 mmHg 28%
    21:00 +22°C° 0 mm 1 mps 658 mmHg 28%
    22:00 +22°C° 0 mm 1 mps 658 mmHg 28%
    23:00 +21°C° 0 mm 1 mps 658 mmHg 28%

    27 September, Wednesday

    Time Temperature Precipitation Wind Pressure Humidity
    00:00 +20°C° 0 mm 2 mps 658 mmHg 28%
    01:00 +20°C° 0 mm 2 mps 657 mmHg 29%
    02:00 +19°C° 0 mm 2 mps 657 mmHg 30%
    03:00 +19°C° 0 mm 2 mps 657 mmHg 29%
    04:00 +19°C° 0 mm 2 mps 657 mmHg 28%
    05:00 +18°C° 0 mm 2 mps 657 mmHg 27%
    06:00 +20°C° 0 mm 2 mps 658 mmHg 24%
    07:00 +23°C° 0 mm 2 mps 658 mmHg 22%
    08:00 +25°C° 0 mm 2 mps 659 mmHg 20%
    09:00 +26°C° 0 mm 2 mps 659 mmHg 18%
    10:00 +28°C° 0 mm 2 mps 660 mmHg 16%
    11:00 +29°C° 0 mm 2 mps 660 mmHg 14%
    12:00 +30°C° 0 mm 2 mps 660 mmHg 14%
    13:00 +30°C° 0 mm 2 mps 659 mmHg 14%
    14:00 +31°C° 0 mm 3 mps 659 mmHg 13%
    15:00 +30°C° 0 mm 2 mps 659 mmHg 14%
    16:00 +30°C° 0 mm 2 mps 659 mmHg 15%
    17:00 +30°C° 0 mm 2 mps 659 mmHg 15%
    18:00 +27°C° 0 mm 1 mps 659 mmHg 19%
    19:00 +25°C° 0 mm 1 mps 658 mmHg 22%
    20:00 +23°C° 0 mm 1 mps 658 mmHg 26%
    21:00 +22°C° 0 mm 1 mps 658 mmHg 25%
    22:00 +22°C° 0 mm 1 mps 658 mmHg 25%
    23:00 +21°C° 0 mm 2 mps 658 mmHg 24%
    Show more